THOR ABLESTAR DEB, 530

Orbit data source: Space-Track

THOR ABLESTAR DEB, 530 is space debris in LEO originally from a launch on Thu, 29 Jun 1961 UTC launched from the Air Force Eastern Test Range (AFETR). Debris objects in space refer to the collection of defunct objects orbiting the Earth. Examples of debris include non-operational satellites, rocket bodies, and fragments generated from explosions, collisions, or faulty payload assembly.

Loading next visibility...
Identifier
530, 1961-015FU
Orbit
LEO
Country
Flag of USUS
Related business
Manufacturer
Unknown
Mission
Spacecraft
Bus & Motor
Unknown
Mass
Unknown
Launch date (UTC)
1961-06-29 (64 years ago)
Launch vehicle
Unknown
Launch site
Air Force Eastern Test Range (AFETR)
Object type
Payload
Rocket body
Debris
Shape & HBR
Unknown
Radar Cross Section
Small (<0.1 m²)

Expand to show TLE details & history
Last TLE update: 2 days ago

TLE from 2 days ago
0 THOR ABLESTAR DEB
1 00530U 61015FU  25258.82092271  .00000085  00000-0  10919-3 0  9990
2 00530  66.8783 284.6540 0078303   2.1793 357.9616 13.99286829269236
Epoch: 2025-09-15T19:42Z
TLE epoch observation values (Epoch: 2025-09-15T19:42:07.722Z)
Latitude
-0.00002°
Longitude
-5.89826°
Altitude
841.426 km
Speed
7.461 km/s
True Right ascension
18h 58m 36s
True Declination
0° 00' 00"
Sunlit
Object was in daylight at epoch
Visualization orbit readout
Latitude
Unknown
Longitude
Unknown
Altitude
Unknown
Speed
Unknown
Apparent Right ascension
Unknown
Apparent Declination
Unknown
Sunlit
N/A
Visualization observer readout
Local Sidereal Time
19:10:59
Azimuth
Unknown
Elevation
Unknown
Doppler factor
Unknown
Orbital elements
Apogee altitude
951.592 km
Perigee altitude
837.696 km
Semi-major axis
7,272.781 km
Eccentricity
0.00783
Inclination
66.8783°
RAAN
284.654°
Arg. of periapsis
2.1793°
True anomaly
357.92937°
Mean anomaly
357.9616°
Eccentric anomaly
357.94552°
Mean motion
3.49939 °/min
Orbital period
102.88 mins
BSTAR
0.00010919
Loading maneuver chart data...
Computing Atmospheric mass density...

Documentation

Showing up to 5 results
|